Location: Standeford and Andreas Observatories
(44.1397°N, 93.9969°W)
Time: 16:24:18
(UTC-05:00)

Cosmos 1500 Rocket - Visible Passes

Search period start: 17 April 2014 00:00
Search period end: 27 April 2014 00:00
Orbit: 604 x 635 km, 82.5° (Epoch: 16 April)

Date Brightness Start Highest point End Pass type
(mag) Time Alt. Az. Time Alt. Az. Time Alt. Az.
17 Apr 4.8 03:46:46 31° ESE 03:47:47 36° E 03:51:45 10° NNE visible
17 Apr 5.0 05:23:56 16° WSW 05:25:46 21° WNW 05:29:04 10° NNW visible
18 Apr 3.7 04:04:25 54° SSE 04:05:13 68° E 04:09:32 10° NNE visible
18 Apr 5.6 05:41:58 10° W 05:43:36 12° WNW 05:45:14 10° NW visible
19 Apr 6.2 02:44:52 11° E 02:45:28 12° E 02:47:00 10° ENE visible
19 Apr 3.5 04:22:03 54° SW 04:22:45 64° W 04:27:03 10° N visible
20 Apr 5.5 03:02:29 21° E 03:02:44 21° E 03:06:00 10° NE visible
20 Apr 4.3 04:39:39 32° W 04:40:23 34° WNW 04:44:20 10° N visible
21 Apr 4.6 03:20:03 38° E 03:20:05 38° E 03:24:06 10° NNE visible
21 Apr 5.0 04:57:14 18° W 04:58:07 19° WNW 05:01:16 10° NNW visible
22 Apr 3.6 03:37:37 73° E 03:37:37 73° E 03:41:51 10° NNE visible
22 Apr 5.7 05:14:47 10° W 05:15:57 11° WNW 05:17:12 10° NW visible
23 Apr 6.2 02:17:59 12° E 02:17:59 12° E 02:19:34 10° ENE visible
23 Apr 3.6 03:55:09 59° WNW 03:55:09 59° WNW 03:59:20 10° N visible
24 Apr 5.5 02:35:30 22° ENE 02:35:30 22° ENE 02:38:23 10° NE visible
24 Apr 4.4 04:12:40 32° WNW 04:12:42 32° WNW 04:16:35 10° N visible
25 Apr 4.7 02:53:00 38° ENE 02:53:00 38° ENE 02:56:25 10° NNE visible
25 Apr 5.2 04:30:10 18° WNW 04:30:26 18° WNW 04:33:27 10° NNW visible
26 Apr 3.9 03:10:29 61° NNE 03:10:29 61° NNE 03:14:08 10° N visible
26 Apr 5.8 04:47:40 10° WNW 04:48:17 10° WNW 04:48:55 10° WNW visible
